Location: *
(45.1961°N, 1.9694°E)
Time: 15:21:46
(UTC+00:00)

Cosmos 2315 Rocket - Pass Details

Date: 25 August 2019
Orbit: 965 x 1003 km, 82.9° (Epoch: 22 September)

Event Time Altitude Azimuth Distance (km) Brightness Sun altitude
Exits shadow 20:35:11 12° 179° (S) 2,593 5.9 -18.5°
Maximum altitude 20:41:04 76° 95° (E) 1,029 3.9 -19.3°
Drops below altitude 10° 20:47:23 10° 11° (NNE) 2,760 6.7 -20.1°
Sets 20:49:55 0° 10° (N) 3,707 7.5 -20.5°
